[[{"header":{"parameterUnit":"m.s-1","parameterCategory":1,"la1":30.2991,"la2":30.254,"lo1":-89.0895,"lo2":-89.0444,"dy":0.0017,"dx":0.0017,"nx":28,"ny":28,"refTime":"2023-11-02T03:00:00:Z","depth":0,"parameterNumber":2,"parameterNumberName":"U-component_of_WINDS"},"data":[0,0,0,0,0,0,0,0,0,0,0,0,0,0,0,0,0,0,0,0,0,0,0,0,0,0,0,0,0,0,0,0,0,0,0,0,0,0,0,0,0,0,0,0,0,0,0,0,0,0,0,0,0,0,0,0,0,0,-2.5879,-2.5881,0,-2.6001,-2.6002,-2.6004,-2.5939,-2.5936,-2.5932,-2.5929,-2.6059,-2.6065,-2.6072,0,0,0,0,0,0,0,0,0,0,0,0,0,-2.5596,-2.5602,-2.5879,-2.5881,-2.5882,-2.6001,-2.6002,-2.6004,-2.5939,-2.5935,-2.5931,-2.5928,-2.6057,-2.6064,-2.6072,0,0,0,0,0,0,0,0,0,0,0,0,0,-2.5719,-2.5604,-2.5879,-2.5864,-2.5864,-2.6,-2.6002,-2.6004,-2.594,-2.5935,-2.593,-2.5926,-2.6054,-2.6064,-2.6073,-2.6233,0,0,-2.6103,-2.6107,0,0,0,0,0,0,0,0,-2.5712,-2.5729,-2.5865,-2.5866,-2.5866,-2.5949,-2.595,-2.6081,-2.5942,-2.5912,-2.5929,-2.5923,-2.6027,-2.6039,-2.6072,-2.6239,-2.6244,-2.6104,-2.611,-2.6114,-2.6117,0,0,0,0,0,0,0,-2.5704,-2.5724,-2.5928,-2.5867,-2.5868,-2.5853,-2.5865,-2.5975,-2.5996,-2.5914,-2.5909,-2.5924,-2.6026,-2.6063,-2.6075,-2.6246,-2.6104,-2.6113,-2.6119,-2.6122,-2.6552,-2.6557,0,0,0,0,0,0,-2.5695,-2.5717,-2.5924,-2.5931,-2.5775,-2.5862,-2.5876,-2.5928,-2.5994,-2.5999,-2.5928,-2.5921,-2.6049,-2.6064,-2.6079,-2.6272,-2.6114,-2.6123,-2.6129,-2.6546,-2.6553,-2.6559,0,0,0,0,0,0,-2.569,-2.5714,-2.5919,-2.5823,-2.5848,-2.5872,-2.5931,-2.5933,-2.597,-2.6005,-2.6009,-2.5962,-2.6045,-2.6065,-2.6195,-2.6276,-2.6128,-2.6137,-2.654,-2.6548,-2.6556,-2.6659,0,0,0,0,0,0,-2.5682,-2.5713,-2.5772,-2.5825,-2.5853,-2.6032,-2.5936,-2.5939,-2.5986,-2.5977,-2.6038,-2.6043,-2.6043,-2.6181,-2.6205,-2.6287,-2.6144,-2.6533,-2.6544,-2.6553,-2.6648,-2.6669,-2.6687,0,0,0,0,0,-2.5672,-2.5797,-2.5776,-2.5801,-2.5928,-2.6036,-2.6053,-2.6049,-2.5993,-2.6054,-2.6077,-2.6041,-2.6262,-2.6195,-2.6221,-2.6307,-2.6528,-2.654,-2.6553,-2.6639,-2.6665,-2.6687,0,0,0,0,0,0,-2.5755,-2.5804,-2.578,-2.5926,-2.5977,-2.6025,-2.6102,-2.6076,-2.6145,-2.6135,-2.6128,-2.6142,-2.6278,-2.6305,-2.6228,-2.6466,-2.6387,-2.6405,-2.6444,-2.6468,-2.6488,-2.648,-2.6152,0,0,0,0,0,-2.579,-2.5872,-2.591,-2.6035,-2.6062,-2.6078,-2.6125,-2.6117,-2.6171,-2.6192,-2.6225,-2.628,-2.6362,-2.6416,-2.6493,-2.6651,-2.6665,-2.6723,-2.6743,-2.6758,-2.6776,-2.6864,-2.6891,-2.66,-2.66,-2.66,0,0,-2.5864,-2.59,-2.5953,-2.6053,-2.6092,-2.6179,-2.6097,-2.6192,-2.6257,-2.6207,-2.6332,-2.6358,-2.6419,-2.6564,-2.6629,-2.6591,-2.6859,-2.6774,-2.6787,-2.6795,-2.6879,-2.6907,-2.6931,-2.6608,-2.6607,-2.6605,0,0,-2.6043,-2.6078,-2.6187,-2.6227,-2.6286,-2.6296,-2.6322,-2.6374,-2.6389,-2.6513,-2.6478,-2.6556,-2.6697,-2.6743,-2.6784,-2.6981,-2.6952,-2.7006,-2.7111,-2.7197,-2.722,-2.724,-2.7313,-2.7339,-2.7023,-2.7023,-2.7023,0,-2.6128,-2.6257,-2.6247,-2.6345,-2.6392,-2.6348,-2.646,-2.65,-2.6582,-2.6616,-2.6571,-2.6747,-2.6785,-2.6941,-2.6989,-2.7023,-2.7055,-2.7001,-2.7216,-2.7237,-2.7256,-2.7326,-2.7353,-2.7029,-2.7029,-2.7028,-2.7027,0,-2.636,-2.6449,-2.653,-2.661,-2.6665,-2.6769,-2.6777,-2.6834,-2.6821,-2.6836,-2.6965,-2.7008,-2.7095,-2.713,-2.7119,-2.7286,-2.7261,-2.7216,-2.7137,-2.729,-2.7356,-2.7382,-2.7039,-2.7036,-2.7034,-2.7033,0,0,-2.6598,-2.6669,-2.67,-2.6736,-2.6798,-2.6868,-2.6971,-2.7054,-2.7105,-2.7162,-2.7251,-2.7371,-2.733,-2.7378,-2.7371,-2.7446,-2.7603,-2.7393,-2.7394,-2.7433,-2.7793,-2.7828,-2.7859,-2.7582,-2.7587,-2.7591,-2.7789,0,-2.6784,-2.6963,-2.6957,-2.7125,-2.721,-2.7169,-2.726,-2.7309,-2.7325,-2.7401,-2.7419,-2.7506,-2.7444,-2.7472,-2.7544,-2.7569,-2.7676,-2.7554,-2.7668,-2.7672,-2.7657,-2.7893,-2.7931,-2.8115,-2.7814,-2.7818,-2.7821,0,-2.7025,-2.7091,-2.7267,-2.7318,-2.7353,-2.7434,-2.7511,-2.7582,-2.7637,-2.7644,-2.7697,-2.7679,-2.7786,-2.7701,-2.785,-2.7767,-2.7813,-2.7832,-2.7839,-2.7853,-2.7759,-2.7916,-2.8173,-2.8202,-2.7861,-2.7858,-2.7855,0,-2.7185,-2.7317,-2.744,-2.7472,-2.7533,-2.7592,-2.7621,-2.7671,-2.7721,-2.7788,-2.7821,-2.79,-2.7944,-2.8007,-2.8011,-2.7948,-2.8163,-2.8078,-2.8174,-2.8175,-2.8224,-2.8222,-2.8496,-2.8248,-2.8248,-2.8247,-2.8247,0,-2.7396,-2.7507,-2.7513,-2.7589,-2.7712,-2.7704,-2.7827,-2.785,-2.7895,-2.7977,-2.7946,-2.8024,-2.8023,-2.8102,-2.8106,-2.8231,-2.825,-2.8261,-2.8262,-2.8266,-2.8265,-2.8299,-2.8287,-2.8255,-2.8253,-2.8251,-2.825,0,-2.7597,-2.7605,-2.7737,-2.7784,-2.7798,-2.7888,-2.7929,-2.8002,-2.8015,-2.8119,-2.8143,-2.8164,-2.8257,-2.8266,-2.8373,-2.8376,-2.8528,-2.8512,-2.8509,-2.8508,-2.8605,-2.8597,-2.8913,-2.8956,-2.8677,-2.868,-2.8682,0,-2.7732,-2.7816,-2.7872,-2.7924,-2.7955,-2.8039,-2.809,-2.8086,-2.8141,-2.821,-2.8276,-2.8365,-2.8436,-2.8585,-2.8612,-2.8695,-2.8684,-2.8788,-2.8696,-2.8699,-2.869,-2.8686,-2.8696,-2.8808,-2.8811,-2.8813,-2.8815,0,-2.7974,-2.7973,-2.8048,-2.8124,-2.8186,-2.8246,-2.8302,-2.8347,-2.8349,-2.8413,-2.8506,-2.8561,-2.867,-2.876,-2.8841,-2.8873,-2.8847,-2.8844,-2.8871,-2.8878,-2.8874,-2.8881,-2.8562,-2.8837,-2.8835,-2.8834,-2.8832,-2.8831,-2.8148,-2.8222,-2.8273,-2.8357,-2.8399,-2.8452,-2.8524,-2.8546,-2.8622,-2.871,-2.8703,-2.8807,-2.8861,-2.8967,-2.9004,-2.9087,-2.9052,-2.9091,-2.9102,-2.9112,-2.9124,-2.8858,-2.9101,-2.9101,-2.91,-2.91,-2.9099,0,-2.8391,-2.8421,-2.8499,-2.8578,-2.8645,-2.8611,-2.8671,-2.8731,-2.8822,-2.8874,-2.8944,-2.9052,-2.9139,-2.9172,-2.9257,-2.9317,-2.9307,-2.934,-2.9338,-2.9346,-2.9148,-2.9118,-2.9347,-2.9347,-2.9347,-2.9347,-2.9347,-2.9346,-2.8525,-2.8649,-2.8655,-2.8799,-2.8829,-2.8929,-2.8967,-2.9017,-2.9059,-2.9181,-2.9252,-2.9272,-2.9317,-2.9406,-2.9485,-2.9492,-2.9527,-2.9566,-2.9569,-2.9384,-2.9359,-2.9336,-2.9307,-2.9572,-2.9573,-2.976,-2.9761,-2.9763]},{"header":{"parameterUnit":"m.s-1","parameterCategory":1,"la1":30.2991,"la2":30.254,"lo1":-89.0895,"lo2":-89.0444,"dy":0.0017,"dx":0.0017,"nx":28,"ny":28,"refTime":"2023-11-02T03:00:00:Z","depth":0,"parameterNumber":3,"parameterNumberName":"V-component_of_WINDS"},"data":[0,0,0,0,0,0,0,0,0,0,0,0,0,0,0,0,0,0,0,0,0,0,0,0,0,0,0,0,0,0,0,0,0,0,0,0,0,0,0,0,0,0,0,0,0,0,0,0,0,0,0,0,0,0,0,0,0,0,-3.6747,-3.6747,0,-3.6725,-3.6724,-3.6724,-3.6645,-3.6643,-3.6641,-3.6639,-3.6618,-3.662,-3.6621,0,0,0,0,0,0,0,0,0,0,0,0,0,-3.6722,-3.6723,-3.6747,-3.6747,-3.6746,-3.6725,-3.6724,-3.6724,-3.6645,-3.6643,-3.664,-3.6638,-3.6618,-3.6619,-3.6621,0,0,0,0,0,0,0,0,0,0,0,0,0,-3.672,-3.6724,-3.6747,-3.6704,-3.67,-3.6725,-3.6724,-3.6724,-3.6645,-3.6643,-3.664,-3.6637,-3.6618,-3.6619,-3.6621,-3.6686,0,0,-3.6626,-3.6627,0,0,0,0,0,0,0,0,-3.672,-3.6721,-3.6711,-3.6707,-3.6703,-3.6684,-3.6708,-3.6711,-3.6646,-3.6666,-3.6639,-3.6636,-3.6643,-3.6642,-3.6644,-3.6685,-3.6684,-3.6626,-3.6627,-3.6628,-3.6628,0,0,0,0,0,0,0,-3.672,-3.6721,-3.6738,-3.6711,-3.6706,-3.6687,-3.6683,-3.6708,-3.667,-3.6664,-3.6658,-3.6657,-3.664,-3.6643,-3.6643,-3.6683,-3.6626,-3.6628,-3.6629,-3.6629,-3.6776,-3.6779,0,0,0,0,0,0,-3.6726,-3.6722,-3.6739,-3.6737,-3.6705,-3.6689,-3.6685,-3.6693,-3.6669,-3.6663,-3.6659,-3.6653,-3.6641,-3.6641,-3.6642,-3.6716,-3.6628,-3.663,-3.6631,-3.6773,-3.6776,-3.678,0,0,0,0,0,0,-3.6726,-3.6729,-3.674,-3.6728,-3.6728,-3.6692,-3.6702,-3.6694,-3.6696,-3.6666,-3.6659,-3.6669,-3.6639,-3.664,-3.6675,-3.6714,-3.663,-3.6632,-3.677,-3.6774,-3.6778,-3.6865,0,0,0,0,0,0,-3.6726,-3.6729,-3.6753,-3.6729,-3.6729,-3.6773,-3.6704,-3.6696,-3.6699,-3.6691,-3.6673,-3.6667,-3.6637,-3.6673,-3.6677,-3.6715,-3.6633,-3.6766,-3.6772,-3.6777,-3.6858,-3.6871,-3.6883,0,0,0,0,0,-3.6725,-3.6779,-3.6755,-3.6757,-3.6758,-3.6775,-3.6775,-3.6739,-3.6703,-3.6727,-3.6707,-3.6668,-3.6709,-3.6677,-3.6681,-3.672,-3.6763,-3.677,-3.6776,-3.6853,-3.6869,-3.6882,0,0,0,0,0,0,-3.6809,-3.6775,-3.6748,-3.6795,-3.6789,-3.6762,-3.6791,-3.6757,-3.6761,-3.6754,-3.6709,-3.6706,-3.6748,-3.6737,-3.6703,-3.6781,-3.673,-3.6737,-3.6787,-3.6802,-3.6814,-3.6815,-3.6635,0,0,0,0,0,-3.6833,-3.6849,-3.6819,-3.6863,-3.6862,-3.6827,-3.6833,-3.6806,-3.6798,-3.6795,-3.6777,-3.6772,-3.6783,-3.6792,-3.6801,-3.6856,-3.6851,-3.6885,-3.6897,-3.6907,-3.6915,-3.6943,-3.6958,-3.6801,-3.6801,-3.6801,0,0,-3.6882,-3.6866,-3.6879,-3.688,-3.6872,-3.689,-3.6825,-3.6848,-3.6861,-3.6798,-3.683,-3.6818,-3.6808,-3.6854,-3.6873,-3.6847,-3.6957,-3.6916,-3.6924,-3.6926,-3.6951,-3.6966,-3.6979,-3.6805,-3.6804,-3.6804,0,0,-3.6982,-3.6971,-3.7007,-3.7,-3.6988,-3.6965,-3.6973,-3.6952,-3.6941,-3.6972,-3.6925,-3.6941,-3.6962,-3.6957,-3.6957,-3.7055,-3.7019,-3.7059,-3.7123,-3.7152,-3.7164,-3.7175,-3.721,-3.7223,-3.7066,-3.7067,-3.7067,0,-3.7046,-3.7071,-3.703,-3.7055,-3.7057,-3.7,-3.7036,-3.7032,-3.7024,-3.7027,-3.6997,-3.7022,-3.7011,-3.7055,-3.7079,-3.7081,-3.709,-3.7061,-3.7165,-3.7176,-3.7185,-3.7218,-3.7231,-3.7072,-3.7071,-3.707,-3.707,0,-3.7149,-3.7168,-3.7198,-3.7191,-3.7196,-3.7227,-3.7191,-3.7201,-3.7173,-3.7153,-3.7186,-3.7172,-3.7177,-3.7185,-3.7159,-3.7225,-3.7209,-3.7173,-3.712,-3.7206,-3.7236,-3.7248,-3.7079,-3.7077,-3.7075,-3.7074,0,0,-3.7301,-3.7271,-3.7283,-3.7278,-3.7261,-3.7275,-3.7303,-3.7307,-3.7317,-3.7313,-3.7336,-3.7355,-3.7321,-3.7322,-3.7294,-3.7319,-3.7397,-3.7279,-3.7278,-3.7302,-3.747,-3.7497,-3.7512,-3.7373,-3.7375,-3.7377,-3.7471,0,-3.7396,-3.7442,-3.7406,-3.7458,-3.7474,-3.7421,-3.7445,-3.7437,-3.742,-3.7431,-3.7412,-3.7426,-3.738,-3.738,-3.7402,-3.7383,-3.743,-3.7376,-3.7394,-3.7395,-3.7398,-3.7528,-3.7557,-3.7646,-3.7482,-3.7484,-3.7486,0,-3.7513,-3.7513,-3.7567,-3.7546,-3.7551,-3.7574,-3.7575,-3.7586,-3.7577,-3.7562,-3.7562,-3.7528,-3.7554,-3.7503,-3.7539,-3.7503,-3.7508,-3.75,-3.7502,-3.7503,-3.7446,-3.7532,-3.7674,-3.7687,-3.7504,-3.7502,-3.7501,0,-3.7618,-3.7633,-3.7667,-3.7665,-3.7641,-3.7658,-3.7649,-3.7636,-3.7641,-3.7642,-3.7644,-3.7649,-3.7652,-3.7656,-3.7624,-3.7589,-3.7665,-3.761,-3.7653,-3.7654,-3.7672,-3.7671,-3.7816,-3.7676,-3.7676,-3.7675,-3.7675,0,-3.7728,-3.7763,-3.7713,-3.7735,-3.7772,-3.7731,-3.7769,-3.7755,-3.7744,-3.7762,-3.7716,-3.7733,-3.769,-3.7703,-3.7678,-3.7712,-3.7714,-3.7703,-3.7696,-3.7707,-3.7708,-3.771,-3.7703,-3.7679,-3.7678,-3.7677,-3.7677,0,-3.7852,-3.782,-3.7854,-3.7828,-3.7822,-3.7851,-3.7829,-3.7848,-3.7827,-3.7849,-3.7853,-3.782,-3.7833,-3.7801,-3.781,-3.7793,-3.7842,-3.7825,-3.7845,-3.784,-3.7885,-3.7882,-3.8037,-3.8055,-3.7903,-3.7904,-3.7905,0,-3.7924,-3.795,-3.7926,-3.7934,-3.7927,-3.7941,-3.7945,-3.7905,-3.7912,-3.7902,-3.7922,-3.7931,-3.7937,-3.7961,-3.7938,-3.7945,-3.7928,-3.7981,-3.7928,-3.7939,-3.7929,-3.7927,-3.793,-3.7993,-3.7995,-3.7996,-3.7997,0,-3.8055,-3.8038,-3.8046,-3.8048,-3.8054,-3.8054,-3.8051,-3.806,-3.8017,-3.8027,-3.804,-3.8044,-3.8052,-3.8062,-3.8064,-3.8055,-3.802,-3.8014,-3.8024,-3.8036,-3.8047,-3.8042,-3.7875,-3.8011,-3.8009,-3.8008,-3.8008,-3.8007,-3.8156,-3.8176,-3.8162,-3.8172,-3.8165,-3.8163,-3.8179,-3.8159,-3.8169,-3.8172,-3.8148,-3.8166,-3.8155,-3.8153,-3.8148,-3.8162,-3.8138,-3.8153,-3.8157,-3.8161,-3.8169,-3.8045,-3.8162,-3.8162,-3.8162,-3.8161,-3.8161,0,-3.8284,-3.8273,-3.8282,-3.8279,-3.8286,-3.8251,-3.8246,-3.8255,-3.8271,-3.8264,-3.8269,-3.8284,-3.8293,-3.8271,-3.8277,-3.8293,-3.8277,-3.8296,-3.8294,-3.8293,-3.819,-3.818,-3.8309,-3.8309,-3.8308,-3.8308,-3.8308,-3.8308,-3.8352,-3.8384,-3.8366,-3.8394,-3.8382,-3.8398,-3.8398,-3.8396,-3.839,-3.8408,-3.8415,-3.84,-3.8387,-3.8392,-3.8399,-3.8393,-3.8397,-3.8422,-3.841,-3.8314,-3.83,-3.8286,-3.8277,-3.8423,-3.8424,-3.8511,-3.8512,-3.8513]}]]